User: anonymous   Login
Location: Unspecified
(0.0000°N, 0.0000°E)
Time: 02:56:59
(UTC+00:00)
Language:

ESSA 9 - Orbit

View from above orbital plane
View from above orbital plane
View from above satellite
View from above satellite

Ground track
Ground track

The orbit data is extracted from the following two-line orbital elements,

1  3764U 69016A   18171.60087869 -.00000053 +00000-0 -57457-4 0  9996
2  3764 101.7364 231.9158 0050839 357.0881 165.0824 12.49835272623202
Epoch (UTC): 20 June 2018 14:25:15
Eccentricity: 0.0050839
inclination: 101.7364°
perigee height: 1425 km
apogee height: 1505 km
right ascension of ascending node: 231.9158°
argument of perigee: 357.0881°
revolutions per day: 12.49835272
mean anomaly at epoch: 165.0824°
orbit number at epoch: 62320

The dashed part of the orbit path shows where the satellite is in the earth's shadow,  

DLR